Tracking 28052 objects as of 25-Sep-2023
HD Live streaming from Space Station
objects crossing your sky now

STARLINK-5636

Track STARLINK-5636 now!
10-day predictions
STARLINK-5636 is classified as:


NORAD ID: 55454
Int'l Code: 2023-015F
Perigee: 565.4 km
Apogee: 567.0 km
Inclination: 43.0 °
Period: 95.8 minutes
Semi major axis: 6937 km
RCS: Unknown
Launch date: February 2, 2023
Source: United States (US)
Launch site: AIR FORCE EASTERN TEST RANGE (AFETR)
Your satellite tracking list
Your tracking list is empty




NASA's NSSDC Master Catalog

Two Line Element Set (TLE):
1 55454U 23015F   23267.78399268 -.00000744  00000-0 -39991-4 0  9998
2 55454  43.0027 159.7274 0001167 271.4351  88.6358 15.02529722 35836
Source of the keplerian elements: AFSPC